Regional Weather Roundup
Issued by NWS

Home | Current Version | Previous Version | Graphics & Text | Print | Product List | Glossary On
Versions: 1 2 3 4 5 6 7 8 9 10 11 12 13 14 15 16 17 18 19 20 21 22 23 24 25 26 27 28 29 30 31 32 33 34 35 36 37 38 39 40 41 42 43 44 45 46 47 48 49 50
000
ASUS43 KMKX 170600
RWRWI

WISCONSIN REGIONAL WEATHER ROUNDUP
NATIONAL WEATHER SERVICE MILWAUKEE/SULLIVAN WI
100 AM CDT WED SEP 17 2014

NOTE: "FAIR" INDICATES FEW OR NO CLOUDS BELOW 12,000 FEET WITH NO
SIGNIFICANT WEATHER AND/OR OBSTRUCTIONS TO VISIBILITY.

WIZ001-002-006>008-014>016-023>028-170700-
NORTHWEST WISCONSIN

CITY           SKY/WX    TMP DP  RH WIND       PRES   REMARKS
SUPERIOR ARPT  PTCLDY    48  44  87 SW6       29.97F
ASHLAND        CLOUDY    52  44  74 SW6       29.98F
6HR MIN TEMP:  52; 6HR MAX TEMP:  57;

HAYWARD        CLEAR     40  38  93 CALM      30.00F
6HR MIN TEMP:  40; 6HR MAX TEMP:  62;

SIREN          CLEAR     44  42  91 CALM      30.00F
RICE LAKE      FOG       42  41  97 CALM      30.03F VSB<1/4
LADYSMITH      CLEAR     42  41  95 CALM      30.04S
EAU CLAIRE     NOT AVBL
MENOMONIE      CLEAR     46  44  95 CALM      30.02F
NEW RICHMOND   PTCLDY    47  43  86 SE3       30.01F
OSCEOLA        CLEAR     46  46 100 CALM      30.03F
$$

WIZ003>005-009-010-017-018-170700-
NORTH CENTRAL WISCONSIN

CITY           SKY/WX    TMP DP  RH WIND       PRES   REMARKS
WOODRUFF       PTCLDY    46  42  87 CALM      30.01F
RHINELANDER    CLEAR     43  40  89 W3        30.02F
6HR MIN TEMP:  43; 6HR MAX TEMP:  54;

EAGLE RIVER    CLOUDY    43  43 100 CALM      30.01S
LAND O LAKES   CLOUDY    50  43  76 CALM      30.01F
PHILLIPS       CLEAR     41  41 100 CALM      30.02F
TOMAHAWK       CLEAR     38  36  95 CALM      30.03F
MEDFORD        CLEAR     40  39  96 CALM      30.03F
MERRILL        MOCLDY    39  39  97 CALM      30.03F
$$

WIZ029-030-035-036-043>047-170700-
CENTRAL WISCONSIN

CITY           SKY/WX    TMP DP  RH WIND       PRES   REMARKS
WAUSAU         CLEAR     45  43  93 CALM      30.02F
6HR MIN TEMP:  45; 6HR MAX TEMP:  59;

MOSINEE        CLEAR     43  43 100 CALM      30.04S
MARSHFIELD     CLEAR     45  42  89 CALM      30.03F
6HR MIN TEMP:  43; 6HR MAX TEMP:  58;

STEVENS POINT  CLEAR     40  38  94 CALM      30.04F
WAUPACA        CLEAR     45  43  93 CALM      30.05S
WAUTOMA        NOT AVBL
WISC RAPIDS    CLEAR     43  41  93 SW3       30.05F
6HR MIN TEMP:  42; 6HR MAX TEMP:  56;

CAMP DOUGLAS   CLEAR     37  37 100 E2        30.04F
6HR MIN TEMP:  35; 6HR MAX TEMP:  55;

$$

WIZ011>013-019>022-031-037>040-048>050-170700-
NORTHEAST WISCONSIN

CITY           SKY/WX    TMP DP  RH WIND       PRES   REMARKS
ANTIGO         CLEAR     41  40  97 CALM      30.03F
STURGEON BAY   CLEAR     52  45  76 SW6       30.02F
6HR MIN TEMP:  52; 6HR MAX TEMP:  59;

GREEN BAY      CLEAR     46  44  93 CALM      30.03F
6HR MIN TEMP:  45; 6HR MAX TEMP:  58;

MANITOWOC      NOT AVBL
APPLETON       CLEAR     46  41  81 W5        30.05S
CLINTONVILLE   CLEAR     45  41  87 CALM      30.03F
OSHKOSH        CLEAR     50  43  77 SW6       30.04F
6HR MIN TEMP:  48; 6HR MAX TEMP:  59;

$$

WIZ032>034-041-042-053>061-170700-
SOUTHWEST WISCONSIN

CITY           SKY/WX    TMP DP  RH WIND       PRES   REMARKS
LA CROSSE      CLEAR     49  46  90 SE6       30.04F
6HR MIN TEMP:  49; 6HR MAX TEMP:  64;

SPARTA         CLEAR     38  38  99 CALM      30.06S
VIROQUA        FAIR      51  44  77 S7        30.05S
BOSCOBEL       FOG       47  46  97 CALM      30.07F VSB 1/4
6HR MIN TEMP:  44; 6HR MAX TEMP:  61;

PRAIRIE DU CHI CLEAR     46  44  93 SE3       30.06S
PLATTEVILLE    FAIR      48  44  86 CALM      30.08S
$$

WIZ056-057-062-063-064-067-068-170700-
SOUTH CENTRAL WISCONSIN

CITY           SKY/WX    TMP DP  RH WIND       PRES   REMARKS
BARABOO/DELLS  CLEAR     44  42  95 CALM      30.06S
LONE ROCK      FOG       45  41  86 CALM      30.07S VSB 1/2
WATERTOWN      CLEAR     41  41  99 CALM      30.06F
MADISON        CLEAR     44  42  93 CALM      30.06F
6HR MIN TEMP:  44; 6HR MAX TEMP:  56;

MIDDLETON      FAIR      41  41 100 CALM      30.07F
MONROE         CLEAR     52  43  71 S6        30.07F
JANESVILLE     CLEAR     45  43  93 CALM      30.07F
$$

WIZ051-052-058>065-066-070>072-170700-
SOUTHEAST WISCONSIN

CITY           SKY/WX    TMP DP  RH WIND       PRES   REMARKS
MILWAUKEE      CLEAR     50  44  80 SW7       30.07F
6HR MIN TEMP:  50; 6HR MAX TEMP:  56;

WAUKESHA       CLEAR     46  43  87 S5        30.08F
MILWAUKEE/TIMM CLEAR     45  41  87 CALM      30.08S
RACINE         CLEAR     47  44  90 SW6       30.09F
6HR MIN TEMP:  47; 6HR MAX TEMP:  57;

BURLINGTON     CLEAR     40  40 100 CALM      30.08F FOG
KENOSHA        CLEAR     46  44  93 SW5       30.08F
6HR MIN TEMP:  44; 6HR MAX TEMP:  56;

FOND DU LAC    CLEAR     45  41  86 SW3       30.05F
6HR MIN TEMP:  45; 6HR MAX TEMP:  56;

SHEBOYGAN      CLEAR     45  42  89 CALM      30.05F
6HR MIN TEMP:  44; 6HR MAX TEMP:  54; 6HR PCP: TRACE;

WEST BEND      CLEAR     41  39  93 CALM      30.06F FOG
JUNEAU         CLEAR     45  42  90 CALM      30.07F
$$

LSZ147-162-170700-
LAKE SUPERIOR

STATION/POSITION TIME  TEMP    WIND        PRES    WAVE
                       AIR SEA DIR/SP/G            HT/PER
                 (UTC) (F)     (DEG/KT/KT) (MB)    (FT/S)
W MID LAKE BUOY  0450   48 47   70/ 12/ 16 1015.2F   2/ 4
DEVILS ISLAND    0500   57     260/ 15/ 17 1014.6F
PORT WING        0540   58     190/  7/ 10 1014.9S
SAXON HARBOR     0540   57     190/  3/  9 1015.2S
$$

LMZ867-665-643>646-170700-
LAKE MICHIGAN

STATION/POSITION TIME  TEMP    WIND        PRES    WAVE
                       AIR SEA DIR/SP/G            HT/PER
                 (UTC) (F)     (DEG/KT/KT) (MB)    (FT/S)
N MID LAKE BUOY  0450   59 59  260/ 14/ 16 1015.8R   2/ 5
NORTHPORT PIER   0500   58     270/  4/ 10 1015.9S
KEWAUNEE LAKESHO 0500   51     300/  5/  7 1016.1F
SHEBOYGAN LAKESH 0500   52 49  250/  8/  9 1018.3F
PORT WASHINGTON  0540   49     270/  3/  4 1018.6F
ATWATER BUOY     0500   57     210/  8/ 10 1019.3F
MILWAUKEE LAKESH 0500   55     230/  7/  9   N/A
S MID LAKE BUOY  0450   60 64  210/  6/  8 1018.8F   1
KENOSHA   LAKESH 0500   56     220/  7/  9 1018.3F
$$

TC  - TEMPERATURE IN CELSIUS
VSB - VISIBILITY IN STATUTE MILES
WCI - WIND CHILL INDEX
HX  - HEAT INDEX



USA.gov is the U.S. government's official web portal to all federal, state and local government web resources and services.